N5ZKK Weather Reports


Display with metric or nautical units.
time (UTC)temp
F
wind
direction
speed
MPH
gust
MPH
rain 1hr
in
rain 24hr
in
rain mn
in
humidity
%
barometer
mb
20260831030030 78 338 0.0 2.0 0.00 0.00 0.00 76 1017.9
20260831025651 78 0 0.0 0.0 0.00 0.00 0.00 74 1015.0
20260831025032 79 0.0 0.0 0.00 0.00 0.00 74 1017.6
20260831024016 80 325 0.0 2.0 0.00 0.00 0.00 73 1017.5
20260831023018 80 0.0 0.0 0.00 0.00 0.00 70 1017.3
20260831022651 80 0 0.0 0.0 0.00 0.00 0.00 68 1014.4
20260831022040 81 0.0 0.0 0.00 0.00 0.00 68 1017.1
20260831021022 82 0.0 0.0 0.00 0.00 0.00 66 1017.0
20260831020024 83 0.0 0.0 0.00 0.00 0.00 64 1016.9
20260831015651 83 0 0.0 0.0 0.00 0.00 0.00 62 1013.8
20260831015020 84 0.0 0.0 0.00 0.00 0.00 61 1017.0
20260831014016 86 315 0.0 2.0 0.00 0.00 0.00 59 1016.8
20260831013030 87 0.0 1.0 0.00 0.00 0.00 57 1016.8
20260831012651 87 139 1.0 3.0 0.00 0.00 0.00 55 1013.3
20260831012033 88 135 1.0 4.0 0.00 0.00 0.00 54 1016.9
20260831011016 88 128 2.0 5.0 0.00 0.00 0.00 54 1016.8
20260831010651 88 126 2.0 4.0 0.00 0.00 0.00 52 1013.1
20260831010019 89 134 3.0 5.0 0.00 0.00 0.00 52 1016.8
20260831005020 90 120 4.0 5.0 0.00 0.00 0.00 50 1016.8
20260831004651 90 120 4.0 5.0 0.00 0.00 0.00 49 1012.8
20260831004021 91 130 4.0 7.0 0.00 0.00 0.00 48 1016.6
20260831003651 91 124 3.0 5.0 0.00 0.00 0.00 47 1012.6
20260831003024 92 129 5.0 8.0 0.00 0.00 0.00 46 1016.6
20260831002651 92 95 4.0 9.0 0.00 0.00 0.00 45 1012.5
20260831002151 92 71 4.0 5.0 0.00 0.00 0.00 46 1012.5
20260831002026 92 71 4.0 6.0 0.00 0.00 0.00 46 1016.6
20260831001518 92 121 4.0 6.0 0.00 0.00 0.00 44 1012.5
20260831001028 93 122 4.0 7.0 0.00 0.00 0.00 44 1016.6
20260831000030 93 86 5.0 10.0 0.00 0.00 0.00 45 1016.6
20260830235518 93 25 3.0 5.0 0.00 0.00 0.00 44 1012.2
20260830235032 94 26 3.0 6.0 0.00 0.00 0.00 44 1016.4
20260830234017 94 74 4.0 7.0 0.00 0.00 0.00 45 1016.6
20260830233518 94 126 4.0 7.0 0.00 0.00 0.00 44 1012.2
20260830233018 94 126 5.0 8.0 0.00 0.00 0.00 45 1016.4
20260830232518 94 96 4.0 8.0 0.00 0.00 0.00 44 1012.1
20260830232021 95 97 5.0 8.0 0.00 0.00 0.00 44 1016.4
20260830231518 94 115 4.0 6.0 0.00 0.00 0.00 44 1012.2
20260830231018 94 102 5.0 8.0 0.00 0.00 0.00 44 1012.3
20260830230025 95 100 5.0 10.0 0.00 0.00 0.00 45 1016.6
20260830225807 96 109 4.0 9.0 0.00 0.00 0.00 43 1012.1
20260830225027 95 87 6.0 9.0 0.00 0.00 0.00 44 1016.6
20260830224029 96 109 4.0 6.0 0.00 0.00 0.00 44 1016.6
20260830223807 96 112 4.0 6.0 0.00 0.00 0.00 43 1012.2
20260830223031 96 136 5.0 8.0 0.00 0.00 0.00 43 1016.6
20260830222015 96 112 6.0 10.0 0.00 0.00 0.00 43 1016.6
20260830221807 96 127 5.0 9.0 0.00 0.00 0.00 42 1012.1
20260830221018 96 132 7.0 9.0 0.00 0.00 0.00 43 1016.6
20260830220807 96 115 5.0 10.0 0.00 0.00 0.00 43 1012.2
20260830220020 95 129 5.0 11.0 0.00 0.00 0.00 45 1016.6
20260830215807 95 129 4.0 10.0 0.00 0.00 0.00 44 1012.4
20260830215314 96 124 5.0 7.0 0.00 0.00 0.00 42 1012.3
20260830215022 96 124 5.0 7.0 0.00 0.00 0.00 43 1016.8
20260830214314 96 113 5.0 9.0 0.00 0.00 0.00 43 1012.3
20260830214024 96 113 5.0 9.0 0.00 0.00 0.00 44 1016.8
20260830213814 96 132 4.0 8.0 0.00 0.00 0.00 43 1012.3
20260830213702 96 132 4.0 8.0 0.00 0.00 0.00 43 1012.3
20260830213202 96 126 5.0 8.0 0.00 0.00 0.00 42 1012.5
20260830213026 97 127 6.0 9.0 0.00 0.00 0.00 43 1017.0
20260830212028 98 112 5.0 7.0 0.00 0.00 0.00 42 1017.1
20260830211050 97 115 4.0 9.0 0.00 0.00 0.00 43 1017.2
20260830210026 97 134 7.0 11.0 0.00 0.00 0.00 43 1017.4
20260830210012 96 149 5.0 9.0 0.00 0.00 0.00 43 1013.2
20260830205015 97 115 5.0 7.0 0.00 0.00 0.00 42 1017.6
20260830204018 98 122 5.0 7.0 0.00 0.00 0.00 42 1017.7
20260830203019 100 129 4.0 5.0 0.00 0.00 0.00 41 1017.9
20260830203012 99 120 4.0 7.0 0.00 0.00 0.00 39 1013.2
20260830202021 100 118 5.0 9.0 0.00 0.00 0.00 41 1018.1
20260830201043 97 155 5.0 7.0 0.00 0.00 0.00 45 1018.3
20260830200025 98 109 5.0 10.0 0.00 0.00 0.00 44 1018.3
20260830200012 97 131 4.0 8.0 0.00 0.00 0.00 45 1014.0
20260830195027 96 89 5.0 7.0 0.00 0.00 0.00 45 1018.5
20260830194030 97 87 5.0 8.0 0.00 0.00 0.00 46 1018.5
20260830193033 96 138 5.0 10.0 0.00 0.00 0.00 47 1018.7
20260830193012 96 102 4.0 7.0 0.00 0.00 0.00 46 1014.2
20260830192032 97 108 6.0 10.0 0.00 0.00 0.00 46 1018.9
20260830191016 97 116 5.0 8.0 0.00 0.00 0.00 45 1019.1
20260830190018 97 136 4.0 9.0 0.00 0.00 0.00 47 1019.2
20260830190012 96 38 4.0 6.0 0.00 0.00 0.00 46 1014.9
20260830185020 96 109 4.0 8.0 0.00 0.00 0.00 46 1019.4
20260830184021 96 128 5.0 8.0 0.00 0.00 0.00 48 1019.5
20260830183044 96 105 6.0 10.0 0.00 0.00 0.00 48 1019.6
20260830183012 96 80 5.0 8.0 0.00 0.00 0.00 48 1015.2
20260830182019 96 88 4.0 7.0 0.00 0.00 0.00 50 1019.9
20260830181021 95 87 4.0 8.0 0.00 0.00 0.00 49 1020.0
20260830180023 95 126 5.0 10.0 0.00 0.00 0.00 50 1020.2
20260830180012 94 135 4.0 7.0 0.00 0.00 0.00 51 1016.2
20260830175125 94 136 3.0 7.0 0.00 0.00 0.00 53 1020.4
20260830174029 94 103 5.0 8.0 0.00 0.00 0.00 53 1020.4
20260830173028 93 149 4.0 7.0 0.00 0.00 0.00 54 1020.6
20260830173012 93 105 4.0 7.0 0.00 0.00 0.00 53 1016.4
20260830172030 93 82 4.0 7.0 0.00 0.00 0.00 54 1020.6
20260830171032 92 126 4.0 7.0 0.00 0.00 0.00 56 1020.7
20260830170016 92 106 5.0 7.0 0.00 0.00 0.00 54 1020.8
20260830170012 91 115 5.0 8.0 0.00 0.00 0.00 55 1016.9
20260830165018 92 124 5.0 8.0 0.00 0.00 0.00 56 1020.8
20260830164019 94 83 5.0 9.0 0.00 0.00 0.00 55 1021.0
20260830163022 94 109 4.0 8.0 0.00 0.00 0.00 55 1021.1
20260830163012 93 146 3.0 5.0 0.00 0.00 0.00 55 1017.0
20260830162024 93 107 3.0 6.0 0.00 0.00 0.00 57 1021.1
20260830161045 92 114 4.0 7.0 0.00 0.00 0.00 57 1021.0
20260830160021 91 104 4.0 7.0 0.00 0.00 0.00 60 1020.8
20260830160012 90 120 4.0 6.0 0.00 0.00 0.00 61 1017.0
20260830155017 89 176 4.0 5.0 0.00 0.00 0.00 64 1020.8
20260830154031 89 100 4.0 6.0 0.00 0.00 0.00 65 1020.8
20260830153033 88 94 3.0 4.0 0.00 0.00 0.00 67 1020.8
20260830153012 86 124 3.0 6.0 0.00 0.00 0.00 68 1017.4
20260830152017 86 127 4.0 6.0 0.00 0.00 0.00 70 1020.8
20260830151019 85 105 4.0 6.0 0.00 0.00 0.00 72 1020.8
20260830150041 83 131 5.0 8.0 0.00 0.00 0.00 76 1020.8
20260830150012 82 147 4.0 7.0 0.00 0.00 0.00 77 1017.8
20260830145023 82 102 5.0 7.0 0.00 0.00 0.00 77 1020.8
20260830144025 83 127 4.0 6.0 0.00 0.00 0.00 77 1020.8
20260830143027 83 115 5.0 8.0 0.00 0.00 0.00 78 1020.8
20260830143012 81 105 3.0 6.0 0.00 0.00 0.00 79 1017.9
20260830142029 81 114 4.0 9.0 0.00 0.00 0.00 80 1020.8
20260830141030 82 108 5.0 9.0 0.00 0.00 0.00 81 1020.8
20260830140031 80 149 2.0 5.0 0.00 0.00 0.00 83 1020.6
20260830140012 80 127 4.0 5.0 0.00 0.00 0.00 83 1017.9
20260830135027 81 146 4.0 5.0 0.00 0.00 0.00 83 1020.6
20260830134017 80 118 3.0 5.0 0.00 0.00 0.00 84 1020.6
20260830133019 79 106 3.0 6.0 0.00 0.00 0.00 85 1020.2
20260830133012 78 135 0.0 2.0 0.00 0.00 0.00 87 1017.7
20260830132033 77 98 1.0 3.0 0.00 0.00 0.00 89 1020.2
20260830131056 75 96 1.0 3.0 0.00 0.00 0.00 94 1020.2
20260830130018 73 120 1.0 4.0 0.00 0.00 0.00 98 1020.1
20260830130012 72 0 0.0 0.0 0.00 0.00 0.00 98 1018.1
20260830125040 73 0.0 0.0 0.00 0.00 0.00 99 1020.0
20260830124102 72 113 0.0 3.0 0.00 0.00 0.00 99 1020.1
20260830123044 72 0.0 2.0 0.00 0.00 0.00 99 1020.0
20260830123012 72 110 2.0 4.0 0.00 0.00 0.00 99 1018.1
20260830122026 72 137 1.0 3.0 0.00 0.00 0.00 99 1020.0
20260830121027 72 64 2.0 6.0 0.00 0.00 0.00 99 1020.0
20260830120029 72 100 2.0 5.0 0.00 0.00 0.00 98 1019.9
20260830120012 72 112 0.0 1.0 0.00 0.00 0.00 98 1017.9
20260830115031 72 113 4.0 5.0 0.00 0.00 0.00 98 1019.8
20260830114033 72 113 3.0 6.0 0.00 0.00 0.00 98 1019.7
20260830113017 72 101 3.0 6.0 0.00 0.00 0.00 98 1019.8
20260830113012 72 89 1.0 3.0 0.00 0.00 0.00 98 1017.9
20260830112018 72 112 2.0 5.0 0.00 0.00 0.00 98 1019.8
20260830111040 72 85 1.0 3.0 0.00 0.00 0.00 97 1019.8
20260830110016 72 102 1.0 5.0 0.00 0.00 0.00 97 1019.7
20260830110012 72 124 1.0 3.0 0.00 0.00 0.00 96 1017.9
20260830105044 73 122 3.0 4.0 0.00 0.00 0.00 96 1019.8
20260830104022 73 119 2.0 4.0 0.00 0.00 0.00 96 1019.7
20260830103023 73 143 1.0 3.0 0.00 0.00 0.00 96 1019.8
20260830103012 72 103 0.0 3.0 0.00 0.00 0.00 95 1017.8
20260830102044 73 156 2.0 5.0 0.00 0.00 0.00 95 1019.8
20260830101026 73 135 1.0 4.0 0.00 0.00 0.00 95 1019.8
20260830100028 73 162 0.0 2.0 0.00 0.00 0.00 94 1019.8
20260830100012 73 87 1.0 2.0 0.00 0.00 0.00 93 1017.8
20260830095029 73 0.0 0.0 0.00 0.00 0.00 93 1019.8
20260830094031 74 114 2.0 5.0 0.00 0.00 0.00 92 1019.7
20260830093033 74 119 2.0 4.0 0.00 0.00 0.00 91 1019.7
20260830093012 73 125 2.0 5.0 0.00 0.00 0.00 91 1017.7
20260830092017 74 101 2.0 5.0 0.00 0.00 0.00 91 1019.7
20260830091051 74 74 1.0 4.0 0.00 0.00 0.00 91 1019.7
20260830090027 74 119 2.0 4.0 0.00 0.00 0.00 90 1019.7
20260830090012 74 87 2.0 4.0 0.00 0.00 0.00 89 1017.5
20260830085036 74 117 1.0 3.0 0.00 0.00 0.00 89 1019.6
20260830084019 75 139 0.0 2.0 0.00 0.00 0.00 88 1019.7
20260830083020 75 109 3.0 5.0 0.00 0.00 0.00 87 1019.8
20260830083012 75 96 3.0 6.0 0.00 0.00 0.00 86 1017.6
20260830082022 75 52 1.0 5.0 0.00 0.00 0.00 86 1019.8
20260830081023 75 85 1.0 3.0 0.00 0.00 0.00 86 1019.9
20260830080026 76 84 1.0 3.0 0.00 0.00 0.00 85 1019.9
20260830080012 75 97 0.0 2.0 0.00 0.00 0.00 84 1017.8
20260830075027 76 64 1.0 3.0 0.00 0.00 0.00 84 1020.0
20260830074029 76 112 2.0 4.0 0.00 0.00 0.00 83 1020.1
20260830073031 77 114 3.0 4.0 0.00 0.00 0.00 83 1020.1
20260830073012 76 114 2.0 6.0 0.00 0.00 0.00 82 1017.7
20260830072033 77 151 2.0 4.0 0.00 0.00 0.00 82 1020.2
20260830071017 77 160 1.0 4.0 0.00 0.00 0.00 81 1020.2
20260830070019 77 107 1.0 3.0 0.00 0.00 0.00 80 1020.2
20260830070012 77 110 1.0 3.0 0.00 0.00 0.00 80 1017.8
20260830065021 78 129 1.0 3.0 0.00 0.00 0.00 79 1020.3
20260830064022 78 100 2.0 5.0 0.00 0.00 0.00 78 1020.1
20260830063025 78 117 3.0 6.0 0.00 0.00 0.00 77 1020.1
20260830063012 78 121 4.0 7.0 0.00 0.00 0.00 77 1017.6
20260830062020 78 115 4.0 7.0 0.00 0.00 0.00 77 1020.2
20260830061016 78 140 2.0 7.0 0.00 0.00 0.00 77 1020.2
20260830061012 78 121 2.0 4.0 0.00 0.00 0.00 77 1017.5
20260830060029 78 134 2.0 4.0 0.00 0.00 0.00 77 1020.1
20260830055032 79 130 1.0 4.0 0.00 0.00 0.00 76 1020.1
20260830055012 78 178 2.0 4.0 0.00 0.00 0.00 76 1017.4
20260830054016 79 105 2.0 5.0 0.00 0.00 0.00 76 1019.9
20260830054012 78 90 0.0 2.0 0.00 0.00 0.00 75 1017.3
20260830053017 79 23 0.0 2.0 0.00 0.00 0.00 75 1019.8
20260830053012 79 87 2.0 5.0 0.00 0.00 0.00 74 1017.1
20260830052512 79 103 1.0 2.0 0.00 0.00 0.00 73 1017.1
20260830052019 80 103 1.0 3.0 0.00 0.00 0.00 74 1019.8
20260830051020 80 131 2.0 5.0 0.00 0.00 0.00 73 1019.8
20260830050042 80 130 4.0 8.0 0.00 0.00 0.00 73 1019.9
20260830045024 80 133 3.0 6.0 0.00 0.00 0.00 73 1019.8
20260830044026 80 121 3.0 4.0 0.00 0.00 0.00 73 1019.8
20260830043028 80 140 2.0 6.0 0.00 0.00 0.00 73 1019.8
20260830042030 80 127 3.0 5.0 0.00 0.00 0.00 72 1019.7
20260830041026 79 101 3.0 6.0 0.00 0.00 0.00 74 1019.7
20260830040016 77 100 4.0 9.0 0.00 0.00 0.00 81 1019.7
20260830035017 77 0.0 0.0 0.00 0.00 0.00 82 1019.4
20260830034039 77 0.0 1.0 0.00 0.00 0.00 79 1019.3
20260830033016 78 0.0 0.0 0.00 0.00 0.00 76 1019.2
20260830032018 79 0.0 0.0 0.00 0.00 0.00 73 1019.1
20260830031020 79 0.0 0.0 0.00 0.00 0.00 72 1019.0